OH6NMY Weather Reports


Display with metric or nautical units.
time (UTC)temp
F
wind
direction
speed
MPH
gust
MPH
rain 1hr
in
rain 24hr
in
rain mn
in
humidity
%
barometer
mb
20260507075624 47 167 5.0 7.0 0.00 0.00 0.00 32 1015.9
20260507074724 47 139 5.0 7.0 0.00 0.00 0.00 32 1016.0
20260507073824 46 132 7.0 11.0 0.00 0.00 0.00 32 1015.7
20260507072924 46 153 7.0 11.0 0.00 0.00 0.00 32 1016.0
20260507072023 47 193 5.0 8.0 0.00 0.00 0.00 31 1016.1
20260507071124 46 153 5.0 8.0 0.00 0.00 0.00 32 1016.2
20260507070223 46 170 5.0 7.0 0.00 0.00 0.00 34 1016.3
20260507065324 46 154 6.0 8.0 0.00 0.00 0.00 36 1016.4
20260507064636 46 171 4.0 8.0 0.00 0.00 0.00 35 1016.5
20260507063524 46 184 5.0 6.0 0.00 0.00 0.00 36 1016.3
20260507062836 45 157 4.0 6.0 0.00 0.00 0.00 37 1016.2
20260507061724 44 154 4.0 7.0 0.00 0.00 0.00 43 1016.3
20260507060824 44 172 3.0 4.0 0.00 0.00 0.00 45 1016.0
20260507055924 43 150 4.0 6.0 0.00 0.00 0.00 45 1015.9
20260507055024 43 156 4.0 6.0 0.00 0.00 0.00 47 1015.9
20260507054124 42 150 2.0 4.0 0.00 0.00 0.00 47 1016.0
20260507053435 42 146 2.0 4.0 0.00 0.00 0.00 49 1015.9
20260507052324 42 148 4.0 6.0 0.00 0.00 0.00 50 1015.8
20260507051635 42 144 3.0 7.0 0.00 0.00 0.00 50 1016.0
20260507050523 40 161 4.0 6.0 0.00 0.00 0.00 53 1015.9
20260507045624 40 165 2.0 4.0 0.00 0.00 0.00 55 1016.0
20260507044937 39 152 2.0 4.0 0.00 0.00 0.00 58 1016.1
20260507043824 38 154 2.0 4.0 0.00 0.00 0.00 60 1016.0
20260507042924 37 162 2.0 4.0 0.00 0.00 0.00 63 1015.8
20260507042024 36 0 0.0 0.0 0.00 0.00 0.00 66 1015.8
20260507041124 35 160 1.0 4.0 0.00 0.00 0.00 67 1015.8
20260507040224 34 153 2.0 4.0 0.00 0.00 0.00 70 1015.9
20260507035324 33 151 1.0 4.0 0.00 0.00 0.00 72 1015.9
20260507034424 32 165 1.0 4.0 0.00 0.00 0.00 73 1016.3
20260507033735 31 160 2.0 4.0 0.00 0.00 0.00 75 1016.3
20260507032624 30 157 0.0 2.0 0.00 0.00 0.00 78 1016.1
20260507031724 29 0 0.0 0.0 0.00 0.00 0.00 79 1015.9
20260507031037 29 0 0.0 0.0 0.00 0.00 0.00 80 1015.9
20260507025924 28 176 0.0 2.0 0.00 0.00 0.00 81 1016.0
20260507025024 28 0 0.0 0.0 0.00 0.00 0.00 81 1015.9
20260507024124 28 0 0.0 0.0 0.00 0.00 0.00 82 1015.8
20260507023224 28 0 0.0 0.0 0.00 0.00 0.00 82 1016.0
20260507022324 28 0 0.0 0.0 0.00 0.00 0.00 82 1015.8
20260507021637 28 0 0.0 0.0 0.00 0.00 0.00 82 1016.0
20260507020524 27 0 0.0 0.0 0.00 0.00 0.00 83 1015.6
20260507015836 27 0 0.0 0.0 0.00 0.00 0.00 83 1015.9
20260507014724 27 0 0.0 0.0 0.00 0.00 0.00 84 1015.9
20260507013824 26 0 0.0 0.0 0.00 0.00 0.00 84 1015.7
20260507012924 27 0 0.0 0.0 0.00 0.00 0.00 83 1015.8
20260507012024 28 0 0.0 0.0 0.00 0.00 0.00 82 1015.8
20260507011124 28 0 0.0 0.0 0.00 0.00 0.00 82 1015.7
20260507010223 28 0 0.0 0.0 0.00 0.00 0.00 81 1015.8
20260507005324 28 0 0.0 0.0 0.00 0.00 0.00 80 1015.8
20260507004423 28 0 0.0 0.0 0.00 0.00 0.00 80 1015.7
20260507003524 29 0 0.0 0.0 0.00 0.00 0.00 79 1015.7
20260507002624 29 0 0.0 0.0 0.00 0.00 0.00 79 1015.5
20260507001723 28 0 0.0 0.0 0.00 0.00 0.00 80 1015.5
20260507000824 28 0 0.0 0.0 0.00 0.00 0.00 80 1015.4
20260507000137 28 0 0.0 0.0 0.00 0.00 0.00 81 1015.5
20260506235024 28 0 0.0 0.0 0.00 0.00 0.00 80 1015.7
20260506234124 28 0 0.0 0.0 0.00 0.00 0.00 81 1015.5
20260506233433 28 0 0.0 0.0 0.00 0.00 0.00 81 1015.8
20260506232324 28 0 0.0 0.0 0.00 0.00 0.00 82 1015.5
20260506231424 29 0 0.0 0.0 0.00 0.00 0.00 80 1015.4
20260506230524 29 225 0.0 2.0 0.00 0.00 0.00 79 1015.3
20260506225624 29 0 0.0 0.0 0.00 0.00 0.00 79 1015.4
20260506224724 29 0 0.0 0.0 0.00 0.00 0.00 79 1015.3
20260506223824 30 0 0.0 0.0 0.00 0.00 0.00 77 1015.4
20260506222924 31 0 0.0 0.0 0.00 0.00 0.00 75 1015.2
20260506222024 31 0 0.0 0.0 0.00 0.00 0.00 74 1015.2
20260506221124 31 0 0.0 0.0 0.00 0.00 0.00 74 1015.1
20260506220223 31 0 0.0 0.0 0.00 0.00 0.00 74 1015.0
20260506215324 32 0 0.0 0.0 0.00 0.00 0.00 74 1014.9
20260506214424 32 0 0.0 0.0 0.00 0.00 0.00 74 1014.9
20260506213734 32 0 0.0 0.0 0.00 0.00 0.00 73 1015.0
20260506212623 33 0 0.0 0.0 0.00 0.00 0.00 73 1014.8
20260506211724 34 0 0.0 0.0 0.00 0.00 0.00 71 1014.7
20260506211036 34 0 0.0 0.0 0.00 0.00 0.00 71 1014.6
20260506205924 35 0 0.0 0.0 0.00 0.00 0.00 70 1014.5
20260506205024 34 0 0.0 0.0 0.00 0.00 0.00 72 1014.5
20260506204124 34 0 0.0 0.0 0.00 0.00 0.00 72 1014.5
20260506203224 35 0 0.0 0.0 0.00 0.00 0.00 71 1014.5
20260506202324 35 0 0.0 0.0 0.00 0.00 0.00 70 1014.5
20260506201423 36 0 0.0 0.0 0.00 0.00 0.00 67 1014.5
20260506200524 37 0 0.0 0.0 0.00 0.00 0.00 65 1014.2
20260506195624 38 0 0.0 0.0 0.00 0.00 0.00 62 1014.1
20260506194724 39 0 0.0 0.0 0.00 0.00 0.00 60 1014.2
20260506194034 39 289 0.0 4.0 0.00 0.00 0.00 59 1014.0
20260506192924 40 275 3.0 4.0 0.00 0.00 0.00 58 1014.1
20260506192024 40 276 4.0 4.0 0.00 0.00 0.00 58 1014.0
20260506191123 41 254 4.0 6.0 0.00 0.00 0.00 56 1014.1
20260506190223 41 259 4.0 7.0 0.00 0.00 0.00 56 1013.9
20260506185324 42 267 6.0 11.0 0.00 0.00 0.00 55 1014.0
20260506184424 42 265 7.0 9.0 0.00 0.00 0.00 55 1014.0
20260506183524 43 260 6.0 11.0 0.00 0.00 0.00 55 1013.8
20260506182624 44 256 7.0 11.0 0.00 0.00 0.00 55 1013.7
20260506181723 44 265 5.0 8.0 0.00 0.00 0.00 54 1013.7
20260506180824 45 270 6.0 7.0 0.00 0.00 0.00 52 1013.5
20260506180135 45 277 6.0 7.0 0.00 0.00 0.00 52 1013.6
20260506175238 45 270 5.0 8.0 0.00 0.00 0.00 51 1013.5
20260506174124 46 284 5.0 8.0 0.00 0.00 0.00 51 1013.3
20260506173224 46 273 5.0 8.0 0.00 0.00 0.00 50 1013.2
20260506172324 46 252 4.0 6.0 0.00 0.00 0.00 50 1013.2
20260506171424 47 251 4.0 6.0 0.00 0.00 0.00 49 1013.2
20260506170523 47 266 5.0 7.0 0.00 0.00 0.00 48 1013.1
20260506165624 47 257 5.0 7.0 0.00 0.00 0.00 46 1013.0
20260506164724 47 253 5.0 9.0 0.00 0.00 0.00 46 1012.9
20260506164037 47 268 4.0 9.0 0.00 0.00 0.00 46 1012.9
20260506162924 47 266 7.0 9.0 0.00 0.00 0.00 46 1012.9
20260506162024 48 288 6.0 9.0 0.00 0.00 0.00 46 1012.9
20260506161333 47 253 6.0 9.0 0.00 0.00 0.00 48 1012.8
20260506160224 46 271 7.0 11.0 0.00 0.00 0.00 49 1012.8
20260506155533 48 275 7.0 11.0 0.00 0.00 0.00 46 1012.7
20260506154424 47 276 8.0 13.0 0.00 0.00 0.00 48 1012.7
20260506153524 49 272 4.0 8.0 0.00 0.00 0.00 46 1012.6
20260506152623 46 265 6.0 8.0 0.00 0.00 0.00 50 1012.7
20260506151724 46 266 6.0 11.0 0.00 0.00 0.00 49 1012.7
20260506151035 46 261 10.0 13.0 0.00 0.00 0.00 50 1012.5
20260506145923 47 270 6.0 9.0 0.00 0.00 0.00 48 1012.4
20260506145234 46 256 6.0 9.0 0.00 0.00 0.00 50 1012.7
20260506144337 45 260 7.0 9.0 0.00 0.00 0.00 51 1012.8
20260506143224 48 260 9.0 11.0 0.00 0.00 0.00 48 1012.7
20260506142323 47 267 8.0 14.0 0.00 0.00 0.00 48 1012.7
20260506141424 47 281 9.0 14.0 0.00 0.00 0.00 51 1012.5
20260506140523 46 288 10.0 14.0 0.00 0.00 0.00 50 1012.9
20260506135624 46 268 9.0 14.0 0.00 0.00 0.00 50 1012.7
20260506134724 45 277 8.0 14.0 0.00 0.00 0.00 52 1012.8
20260506133823 46 277 7.0 9.0 0.00 0.00 0.00 52 1012.7
20260506133136 46 266 7.0 11.0 0.00 0.00 0.00 52 1012.7
20260506132024 45 263 11.0 14.0 0.00 0.00 0.00 53 1012.5
20260506131124 45 278 9.0 13.0 0.00 0.00 0.00 52 1012.4
20260506130438 45 277 9.0 14.0 0.00 0.00 0.00 53 1012.5
20260506125324 45 294 12.0 21.0 0.00 0.00 0.00 52 1012.4
20260506124424 46 292 10.0 15.0 0.00 0.00 0.00 53 1012.5
20260506123523 44 287 13.0 17.0 0.00 0.00 0.00 54 1012.2
20260506122624 45 287 12.0 17.0 0.00 0.00 0.00 53 1012.4
20260506121724 45 281 11.0 16.0 0.00 0.00 0.00 52 1012.1
20260506120824 46 274 15.0 18.0 0.00 0.00 0.00 50 1011.8
20260506115924 46 290 12.0 18.0 0.00 0.00 0.00 48 1011.8
20260506115024 46 272 12.0 16.0 0.00 0.00 0.00 46 1011.7
20260506114334 46 277 12.0 16.0 0.00 0.00 0.00 46 1011.8
20260506113224 47 292 15.0 21.0 0.00 0.00 0.00 42 1011.5
20260506112534 47 300 16.0 21.0 0.00 0.00 0.00 39 1011.4
20260506111424 47 297 12.0 21.0 0.00 0.00 0.00 41 1011.3
20260506110524 46 276 13.0 20.0 0.00 0.00 0.00 40 1011.4
20260506105836 47 296 13.0 20.0 0.00 0.00 0.00 40 1011.3
20260506104933 47 291 13.0 17.0 0.00 0.00 0.00 41 1011.2
20260506103824 47 269 10.0 15.0 0.00 0.00 0.00 42 1011.0
20260506102924 46 274 12.0 22.0 0.00 0.00 0.00 44 1010.9
20260506102024 46 280 12.0 22.0 0.00 0.00 0.00 44 1010.9
20260506101124 46 259 10.0 16.0 0.00 0.00 0.00 43 1011.1
20260506100223 46 282 9.0 14.0 0.00 0.00 0.00 42 1010.9
20260506095323 48 270 10.0 13.0 0.00 0.00 0.00 43 1010.6
20260506094424 46 281 10.0 13.0 0.00 0.00 0.00 45 1010.8
20260506093524 45 266 12.0 22.0 0.00 0.00 0.00 42 1010.4
20260506092624 46 293 15.0 22.0 0.00 0.00 0.00 45 1010.3
20260506091723 46 276 12.0 15.0 0.00 0.00 0.00 44 1010.3
20260506090824 46 277 12.0 15.0 0.00 0.00 0.00 46 1010.4
20260506090136 46 278 12.0 15.0 0.00 0.00 0.00 46 1010.1
20260506085024 44 267 12.0 16.0 0.00 0.00 0.00 47 1010.2
20260506084124 45 270 15.0 20.0 0.00 0.00 0.00 49 1010.3
20260506083223 43 274 10.0 14.0 0.00 0.00 0.00 51 1010.4
20260506082324 44 283 10.0 17.0 0.00 0.00 0.00 50 1010.1
20260506081423 44 284 10.0 13.0 0.00 0.00 0.00 50 1009.9
20260506080524 43 294 11.0 17.0 0.00 0.00 0.00 52 1010.0